EW1857 Weather Reports


time (UTC)temp
C
wind
direction
speed
KPH
gust
KPH
rain 1hr
cm
rain 24hr
cm
rain mn
cm
humidity
%
barometer
mb
20260506175418 21 0.0 0.0 0.00 0.00 0.00 50 999.1
20260506174421 21 0.0 0.0 0.00 0.00 0.00 49 999.2
20260506173922 21 0.0 0.0 0.00 0.00 0.00 49 999.2
20260506173426 21 0.0 0.0 0.00 0.00 0.00 48 999.1
20260506172418 22 0.0 0.0 0.00 0.00 0.00 47 999.2
20260506171416 22 0.0 0.0 0.00 0.00 0.00 47 999.2
20260506170416 22 0.0 0.0 0.00 0.00 0.00 46 999.2
20260506165518 22 0.0 0.0 0.00 0.00 0.00 46 999.2
20260506164524 22 0.0 0.0 0.00 0.00 0.00 46 999.3
20260506163517 22 0.0 0.0 0.00 0.00 0.00 45 999.3
20260506162516 22 0.0 0.0 0.00 0.00 0.00 44 999.5
20260506161517 23 0.0 0.0 0.00 0.00 0.00 43 999.5
20260506160523 23 0.0 0.0 0.00 0.00 0.00 43 999.8
20260506155417 23 0.0 0.0 0.00 0.00 0.00 42 999.8
20260506154417 23 0.0 0.0 0.00 0.00 0.00 43 1000.2
20260506153418 23 0.0 0.0 0.00 0.00 0.00 42 1000.2
20260506152925 24 0.0 0.0 0.00 0.00 0.00 42 1000.5
20260506151916 24 0.0 0.0 0.00 0.00 0.00 42 1000.5
20260506150916 24 0.0 0.0 0.00 0.00 0.00 42 1000.8
20260506145916 24 0.0 0.0 0.00 0.00 0.00 42 1000.9
20260506144918 25 0.0 0.0 0.00 0.00 0.00 43 1001.0
20260506143918 24 0.0 0.0 0.00 0.00 0.00 43 1001.0
20260506142917 24 0.0 0.0 0.00 0.00 0.00 42 1001.0
20260506141916 25 0.0 0.0 0.00 0.00 0.00 43 1001.0
20260506140916 25 0.0 0.0 0.00 0.00 0.00 43 1001.2
20260506135918 25 0.0 0.0 0.00 0.00 0.00 43 1001.2
20260506135425 25 0.0 0.0 0.00 0.00 0.00 43 1001.2
20260506134516 25 0.0 0.0 0.00 0.00 0.00 43 1001.5
20260506133521 25 0.0 0.0 0.00 0.00 0.00 43 1001.5
20260506132517 24 0.0 0.0 0.00 0.00 0.00 45 1001.8
20260506131516 24 0.0 0.0 0.00 0.00 0.00 44 1001.8
20260506130522 24 0.0 0.0 0.00 0.00 0.00 43 1001.8
20260506125418 24 0.0 0.0 0.00 0.00 0.00 41 1001.8
20260506124418 26 0.0 0.0 0.00 0.00 0.00 38 1002.1
20260506123417 25 0.0 0.0 0.00 0.00 0.00 39 1002.1
20260506122418 25 0.0 0.0 0.00 0.00 0.00 38 1002.4
20260506121417 26 0.0 0.0 0.00 0.00 0.00 36 1002.4
20260506120416 26 0.0 0.0 0.00 0.00 0.00 38 1002.5
20260506115420 26 0.0 0.0 0.00 0.00 0.00 37 1002.5
20260506114922 26 0.0 0.0 0.00 0.00 0.00 38 1002.6
20260506114426 26 0.0 0.0 0.00 0.00 0.00 37 1002.6
20260506113418 27 0.0 0.0 0.00 0.00 0.00 38 1002.7
20260506112417 26 0.0 0.0 0.00 0.00 0.00 39 1003.2
20260506111419 26 0.0 0.0 0.00 0.00 0.00 39 1003.2
20260506110419 27 0.0 0.0 0.00 0.00 0.00 37 1003.2
20260506105417 27 0.0 0.0 0.00 0.00 0.00 36 1003.2
20260506104416 27 0.0 0.0 0.00 0.00 0.00 37 1003.5
20260506103517 28 0.0 0.0 0.00 0.00 0.00 35 1003.5
20260506102516 28 0.0 0.0 0.00 0.00 0.00 35 1003.5
20260506101518 31 0.0 0.0 0.00 0.00 0.00 31 1003.7
20260506100520 31 0.0 0.0 0.00 0.00 0.00 31 1003.6
20260506095420 33 0.0 0.0 0.00 0.00 0.00 29 1003.7
20260506094926 33 0.0 0.0 0.00 0.00 0.00 28 1004.0
20260506094223 34 0.0 0.0 0.00 0.00 0.00 30 1004.1
20260506092916 34 0.0 0.0 0.00 0.00 0.00 31 1004.0
20260506091921 33 0.0 0.0 0.00 0.00 0.00 32 1003.9
20260506091423 33 0.0 0.0 0.00 0.00 0.00 33 1004.0
20260506090921 32 0.0 0.0 0.00 0.00 0.00 34 1004.1
20260506090426 31 0.0 0.0 0.00 0.00 0.00 35 1004.0
20260506085923 31 0.0 0.0 0.00 0.00 0.00 35 1004.0
20260506085422 30 0.0 0.0 0.00 0.00 0.00 36 1003.9
20260506084925 30 0.0 0.0 0.00 0.00 0.00 36 1004.1
20260506084425 30 0.0 0.0 0.00 0.00 0.00 36 1004.1
20260506083925 30 0.0 0.0 0.00 0.00 0.00 36 1004.2
20260506083424 30 0.0 0.0 0.00 0.00 0.00 36 1004.2
20260506082517 30 0.0 0.0 0.00 0.00 0.00 37 1004.0
20260506081518 29 0.0 0.0 0.00 0.00 0.00 39 1004.0
20260506080523 28 0.0 0.0 0.00 0.00 0.00 40 1004.0
20260506072916 21 0.0 0.0 0.00 0.00 0.00 58 1003.7
20260506071916 20 0.0 0.0 0.00 0.00 0.00 60 1003.7
20260506071427 20 0.0 0.0 0.00 0.00 0.00 59 1003.6
20260506070517 20 0.0 0.0 0.00 0.00 0.00 61 1003.5
20260506061917 16 0.0 0.0 0.00 0.00 0.00 67 1003.3
20260506060916 16 0.0 0.0 0.00 0.00 0.00 68 1003.6
20260506050925 13 0.0 0.0 0.00 0.00 0.00 71 1002.8
20260506050424 13 0.0 0.0 0.00 0.00 0.00 71 1002.7
20260506044418 12 0.0 0.0 0.00 0.00 0.00 71 1002.7
20260506043418 12 0.0 0.0 0.00 0.00 0.00 71 1002.7
20260506042417 12 0.0 0.0 0.00 0.00 0.00 72 1002.6
20260506041923 12 0.0 0.0 0.00 0.00 0.00 72 1002.6
20260506041423 12 0.0 0.0 0.00 0.00 0.00 72 1002.6
20260506040722 12 0.0 0.0 0.00 0.00 0.00 72 1002.2
20260506035518 12 0.0 0.0 0.00 0.00 0.00 72 1002.4
20260506034517 12 0.0 0.0 0.00 0.00 0.00 72 1002.4
20260506033516 12 0.0 0.0 0.00 0.00 0.00 72 1002.4
20260506032525 12 0.0 0.0 0.00 0.00 0.00 72 1002.0
20260506031526 12 0.0 0.0 0.00 0.00 0.00 72 1002.1
20260506030527 12 0.0 0.0 0.00 0.00 0.00 72 1002.0
20260506025420 12 0.0 0.0 0.00 0.00 0.00 71 1002.0
20260506024921 13 0.0 0.0 0.00 0.00 0.00 71 1002.1
20260506024425 13 0.0 0.0 0.00 0.00 0.00 71 1002.1
20260506023418 13 0.0 0.0 0.00 0.00 0.00 71 1002.1
20260506022922 13 0.0 0.0 0.00 0.00 0.00 71 1002.2
20260506022426 13 0.0 0.0 0.00 0.00 0.00 71 1002.3
20260506021418 13 0.0 0.0 0.00 0.00 0.00 70 1002.3
20260506020927 13 0.0 0.0 0.00 0.00 0.00 70 1002.2
20260506015625 13 0.0 0.0 0.00 0.00 0.00 69 1002.2
20260506014617 13 0.0 0.0 0.00 0.00 0.00 68 1001.6
20260506013516 14 0.0 0.0 0.00 0.00 0.00 68 1001.6
20260506012516 14 0.0 0.0 0.00 0.00 0.00 67 1001.8
20260506011525 15 0.0 0.0 0.00 0.00 0.00 67 1001.8
20260506010521 15 0.0 0.0 0.00 0.00 0.00 66 1001.7
20260506005416 15 0.0 0.0 0.00 0.00 0.00 65 1001.7
20260506004117 15 0.0 0.0 0.00 0.00 0.00 64 1001.6
20260506003125 15 0.0 0.0 0.00 0.00 0.00 62 1001.6
20260506002122 16 0.0 0.0 0.00 0.00 0.00 62 1001.6
20260506001026 16 0.0 0.0 0.00 0.00 0.00 62 1001.7
20260505235916 16 0.0 0.0 0.00 0.00 0.00 62 1001.7
20260505234919 16 0.0 0.0 0.00 0.00 0.00 61 1001.4
20260505234423 16 0.0 0.0 0.00 0.00 0.00 61 1001.4
20260505233922 16 0.0 0.0 0.00 0.00 0.00 61 1001.4
20260505233422 16 0.0 0.0 0.00 0.00 0.00 61 1001.4
20260505232922 16 0.0 0.0 0.00 0.00 0.00 61 1001.5
20260505232425 16 0.0 0.0 0.00 0.00 0.00 60 1001.5
20260505231925 16 0.0 0.0 0.00 0.00 0.00 60 1001.6
20260505231424 16 0.0 0.0 0.00 0.00 0.00 60 1001.6
20260505230923 16 0.0 0.0 0.00 0.00 0.00 60 1001.6
20260505230425 16 0.0 0.0 0.00 0.00 0.00 60 1001.6
20260505225925 16 0.0 0.0 0.00 0.00 0.00 60 1001.6
20260505224915 16 0.0 0.0 0.00 0.00 0.00 59 1001.5
20260505223919 16 0.0 0.0 0.00 0.00 0.00 59 1001.5
20260505223426 16 0.0 0.0 0.00 0.00 0.00 59 1001.5
20260505222418 16 0.0 0.0 0.00 0.00 0.00 59 1001.7
20260505221417 16 0.0 0.0 0.00 0.00 0.00 58 1001.6
20260505220419 16 0.0 0.0 0.00 0.00 0.00 58 1001.2
20260505215417 16 0.0 0.0 0.00 0.00 0.00 58 1001.2
20260505214420 16 0.0 0.0 0.00 0.00 0.00 58 1001.2
20260505213922 16 0.0 0.0 0.00 0.00 0.00 58 1001.2
20260505213426 16 0.0 0.0 0.00 0.00 0.00 57 1001.2
20260505212527 16 0.0 0.0 0.00 0.00 0.00 57 1001.3
20260505211518 16 0.0 0.0 0.00 0.00 0.00 57 1001.3
20260505210526 16 0.0 0.0 0.00 0.00 0.00 56 1001.5
20260505205418 16 0.0 0.0 0.00 0.00 0.00 54 1001.4
20260505204117 17 0.0 0.0 0.00 0.00 0.00 54 1000.9
20260505203125 17 0.0 0.0 0.00 0.00 0.00 53 1000.8
20260505202417 17 0.0 0.0 0.00 0.00 0.00 52 1000.7
20260505201416 17 0.0 0.0 0.00 0.00 0.00 52 1000.7
20260505200419 17 0.0 0.0 0.00 0.00 0.00 51 1000.9
20260505195923 17 0.0 0.0 0.00 0.00 0.00 51 1000.9
20260505195426 17 0.0 0.0 0.00 0.00 0.00 51 1000.9
20260505194926 17 0.0 0.0 0.00 0.00 0.00 51 1000.8
20260505194427 17 0.0 0.0 0.00 0.00 0.00 51 1000.8
20260505193417 17 0.0 0.0 0.00 0.00 0.00 50 1000.8
20260505192926 18 0.0 0.0 0.00 0.00 0.00 50 1000.8
20260505192425 18 0.0 0.0 0.00 0.00 0.00 50 1000.8
20260505191926 18 0.0 0.0 0.00 0.00 0.00 50 1000.8
20260505190919 18 0.0 0.0 0.00 0.00 0.00 50 1000.9
20260505190423 18 0.0 0.0 0.00 0.00 0.00 50 1000.9
20260505185927 18 0.0 0.0 0.00 0.00 0.00 49 1000.9
20260505185422 18 0.0 0.0 0.00 0.00 0.00 49 1000.9
20260505184925 18 0.0 0.0 0.00 0.00 0.00 49 1000.6
20260505183919 18 0.0 0.0 0.00 0.00 0.00 48 1000.6
20260505182917 19 0.0 0.0 0.00 0.00 0.00 47 1000.8
20260505182423 19 0.0 0.0 0.00 0.00 0.00 47 1000.8
20260505181925 19 0.0 0.0 0.00 0.00 0.00 47 1000.8
20260505181426 20 0.0 0.0 0.00 0.00 0.00 46 1000.7
20260505180416 20 0.0 0.0 0.00 0.00 0.00 45 1000.6